Theta_e
337 343 344 341 340 341 339 340 341 342 342 341 340 339 337 339 340 340 341 340 339 340 340 338 335 334 333 332 331 330 329 329 329 329 328 331 332 333 334 335 336 336 334 335 335 334 334 333 333 333 334 334 333 332 330 330 330 330 330 329 329 329 329 330 330 330 330 330 330 329 329 329 329 331 330 330 329 329 328 328 328 328 328 328 328
334 338 342 340 337 339 338 339 341 342 342 340 338 336 336 339 340 341 341 339 340 341 339 336 334 332 333 332 330 328 328 329 329 328 327 330 333 333 334 334 335 336 335 334 334 334 334 334 333 333 334 333 331 331 330 331 331 330 330 328 329 330 329 330 330 330 329 330 331 330 330 329 329 330 330 329 329 328 327 326 326 326 326 327 326
333 335 338 336 334 337 337 338 340 342 341 339 339 339 338 340 339 341 341 338 340 341 338 336 334 332 332 331 330 329 329 329 328 328 328 329 332 332 333 334 334 335 335 335 334 334 334 334 334 334 334 332 330 329 329 332 332 331 330 329 330 330 331 332 331 330 328 329 331 330 330 329 328 329 329 328 328 327 327 326 325 325 324 324 325
336 335 337 336 335 339 339 338 338 338 337 338 340 338 338 338 338 340 340 338 340 340 336 336 336 335 334 332 332 330 328 326 325 328 329 328 329 330 331 332 332 333 334 335 334 334 333 333 333 332 332 331 330 327 328 332 332 331 330 330 331 332 330 332 331 330 327 327 329 329 329 329 328 328 328 327 326 325 325 325 324 324 324 324 324
337 336 335 334 337 340 339 335 333 332 330 334 336 333 333 333 333 334 334 334 338 338 337 338 337 336 335 333 331 329 326 326 327 328 329 327 328 329 329 329 330 330 331 333 334 334 334 334 333 332 331 331 330 328 328 329 329 330 331 331 333 332 329 330 331 331 329 328 329 328 329 328 327 327 327 326 325 324 323 324 323 322 322 323 323
337 335 334 334 337 339 334 330 329 330 329 332 333 333 333 333 332 333 331 332 335 339 339 337 335 334 332 330 329 328 328 328 327 328 327 327 327 328 328 328 328 328 328 329 331 333 334 333 333 331 331 332 331 330 330 330 329 330 330 331 332 331 329 328 330 331 330 330 330 330 330 328 327 327 327 326 324 323 322 322 322 321 321 321 322
334 334 334 335 337 334 331 330 331 331 330 332 333 332 333 334 335 334 334 333 332 337 339 335 333 332 330 330 329 329 330 329 327 328 327 326 326 327 327 327 327 327 327 327 328 329 330 330 330 328 329 330 329 329 331 331 330 329 329 330 330 329 328 327 328 329 331 331 331 330 330 329 327 327 328 326 324 322 322 321 321 320 320 321 321
334 335 335 337 335 333 332 331 331 331 331 331 332 333 333 334 335 335 336 336 333 335 336 332 331 331 330 331 331 329 329 328 326 326 326 325 325 325 323 324 325 325 325 326 326 326 326 326 327 326 325 325 325 326 327 327 327 328 330 330 329 329 329 328 328 329 330 330 331 330 329 330 329 327 326 326 325 322 321 321 320 319 319 319 319
334 335 335 333 331 332 333 332 332 332 332 332 333 333 332 332 334 335 336 338 337 338 335 332 331 331 331 332 331 329 327 325 324 323 324 325 325 324 322 322 324 325 326 326 326 325 325 325 325 325 325 324 322 324 324 326 328 331 332 331 331 331 330 330 330 330 329 330 331 330 328 328 328 327 325 326 325 321 320 319 318 318 318 317 317
332 334 333 330 329 332 333 333 333 333 332 332 331 331 330 331 333 333 334 335 337 338 337 334 333 331 331 330 328 326 325 325 323 323 324 324 324 323 322 321 322 324 326 325 325 325 325 325 325 326 325 325 324 324 326 328 332 333 333 333 332 331 331 331 330 330 329 330 329 329 328 327 327 327 326 326 324 321 319 319 318 318 317 317 316
332 333 331 329 329 333 333 332 332 332 331 331 330 329 329 330 332 332 332 333 334 336 337 335 333 331 329 328 327 325 326 325 324 323 323 323 322 322 323 323 322 323 325 325 325 325 325 326 326 325 325 325 325 325 325 328 331 332 332 332 332 332 331 330 331 330 329 329 328 327 326 326 325 325 325 324 322 320 318 318 318 317 316 315 315
332 333 330 328 329 333 333 331 331 331 331 330 330 330 330 331 331 331 331 331 331 333 335 334 332 332 330 328 327 326 325 325 325 323 322 322 322 322 322 322 322 323 324 325 324 324 325 326 326 325 325 325 325 324 324 325 327 329 330 331 331 331 330 330 330 330 329 329 327 325 323 323 322 321 321 320 319 318 319 318 317 315 315 314 314
331 333 330 328 331 334 333 331 331 330 330 329 329 329 330 330 330 330 330 330 329 329 333 334 333 332 332 329 328 328 326 326 326 323 322 322 320 321 321 320 321 323 323 323 323 323 324 325 325 325 325 325 325 325 324 325 324 326 329 331 330 330 329 329 330 329 328 326 324 321 320 319 318 317 318 318 317 318 318 317 316 315 315 314 313
330 334 331 330 334 336 334 331 330 328 328 326 327 328 327 327 328 326 326 327 327 327 328 331 332 332 332 331 329 330 328 327 326 323 322 321 319 321 321 321 322 323 323 322 322 323 324 324 324 324 324 324 325 324 324 323 323 324 326 328 327 327 326 325 326 325 323 322 320 317 315 314 313 314 314 315 315 317 317 316 316 315 315 315 314
330 334 332 332 335 336 334 333 331 330 329 328 328 327 327 327 326 322 322 324 325 326 325 328 330 332 331 328 327 330 329 327 325 322 321 321 320 320 321 322 323 323 322 322 322 323 323 323 323 323 323 323 324 323 323 322 322 322 323 324 323 322 321 321 321 320 319 317 316 313 313 313 312 312 313 313 314 316 316 316 316 315 314 315 314
332 334 333 333 335 337 336 335 334 333 331 330 329 327 327 327 325 322 320 320 322 324 325 326 328 330 328 324 327 330 329 327 324 321 321 321 320 321 321 322 322 321 321 320 321 321 321 320 320 321 322 322 322 322 322 321 321 321 321 320 318 318 317 317 317 317 316 315 314 313 314 314 314 313 313 314 314 315 315 315 315 315 315 315 314
331 333 334 333 335 336 335 335 335 333 331 331 330 328 328 327 325 323 323 322 322 323 325 326 327 329 327 325 329 330 328 327 324 322 322 322 322 323 323 322 322 320 320 319 320 320 319 318 318 318 319 320 320 320 319 319 318 317 317 317 316 316 315 315 315 315 315 315 315 315 315 315 315 315 314 314 314 315 315 315 316 315 315 315 315
328 332 333 333 334 334 333 333 333 333 332 332 332 330 329 329 327 326 326 325 325 325 325 325 327 329 329 329 330 329 328 328 324 321 321 321 322 323 322 321 320 319 319 318 318 319 318 316 316 316 317 317 317 316 315 315 315 314 314 314 314 314 314 314 314 314 315 316 316 316 317 317 317 317 316 315 315 315 315 316 315 315 316 316 315
329 331 331 332 333 333 332 331 332 332 333 333 333 331 331 330 329 329 328 326 326 326 325 324 327 328 328 329 330 329 329 327 322 320 319 317 318 318 320 321 320 318 317 316 315 315 315 314 313 314 315 315 315 314 313 313 312 312 312 312 312 312 313 314 314 315 316 317 317 317 317 317 316 316 317 317 316 316 315 315 315 316 317 317 316
330 330 329 330 331 331 331 330 329 330 331 331 332 332 332 330 329 329 329 327 327 327 325 325 327 328 328 329 329 329 328 324 320 319 318 318 317 317 319 321 319 317 317 315 314 314 314 313 312 312 313 313 313 313 312 312 311 311 311 311 312 312 312 313 314 315 316 317 317 316 316 316 316 316 315 316 317 316 316 316 316 316 317 317 317
329 329 329 328 329 329 329 328 327 328 329 330 331 333 332 330 328 328 328 328 327 327 327 326 327 328 328 330 329 328 326 323 320 319 320 319 318 318 318 319 318 317 316 315 314 314 313 312 311 311 312 312 313 313 312 312 312 312 312 312 312 312 313 314 315 315 315 316 315 315 315 315 315 315 315 315 314 315 315 315 315 316 316 316 316
328 328 328 328 328 328 328 327 326 327 327 327 329 331 331 330 329 329 328 328 328 328 327 327 327 328 329 330 329 327 326 324 322 321 321 321 321 321 319 318 318 318 316 314 315 315 314 313 312 312 311 311 312 312 312 313 313 313 313 314 313 313 313 314 314 315 315 315 314 314 314 314 314 314 314 314 314 314 315 315 315 316 315 315 315
325 326 326 328 328 326 328 328 328 328 328 328 330 330 330 329 329 329 328 328 328 328 328 327 327 328 329 329 327 325 324 324 324 322 321 322 324 323 321 318 317 317 316 315 315 315 315 314 314 313 312 311 312 313 313 313 313 314 314 315 314 314 314 314 313 313 314 315 314 314 314 314 315 315 315 314 313 314 314 315 315 315 315 315 315
324 324 325 327 327 327 328 329 329 329 329 329 329 329 329 328 328 328 328 327 328 328 328 328 328 328 327 327 326 324 323 323 324 322 322 323 324 323 322 319 317 317 316 316 315 314 315 315 315 315 314 312 312 314 314 314 314 314 314 315 315 315 315 315 314 313 313 314 315 316 315 315 316 316 316 315 314 315 315 315 315 315 315 315 315
323 323 323 325 326 327 327 327 328 329 329 328 328 328 328 328 328 328 328 328 328 328 328 328 328 328 327 326 326 325 323 323 323 322 321 324 324 322 322 320 318 317 316 317 316 314 314 315 315 315 315 315 314 314 315 316 316 315 316 316 316 316 316 317 316 315 315 316 316 317 317 317 317 318 317 317 316 316 315 315 315 315 315 315 315
322 322 322 323 324 325 325 325 325 327 327 328 328 328 328 328 328 328 328 328 327 327 328 328 327 328 327 326 326 325 324 324 323 323 322 324 323 322 322 321 320 318 317 318 317 315 315 315 314 314 315 315 315 315 315 316 317 317 317 317 317 318 318 318 318 317 317 317 318 318 318 318 318 318 318 317 317 317 317 316 316 316 315 314 315
320 320 320 320 321 323 324 323 323 324 326 326 327 327 328 328 327 327 327 327 326 326 327 327 327 328 328 327 326 326 325 324 324 323 323 324 324 322 321 321 320 320 319 319 317 317 316 315 314 314 314 314 315 315 315 315 315 317 318 318 319 319 319 319 319 319 318 318 319 318 318 318 318 318 318 317 317 317 317 317 317 316 316 315 314
317 317 316 317 317 319 322 321 321 322 323 324 325 325 326 326 326 327 327 327 327 327 327 327 327 328 327 327 327 326 326 325 324 324 324 324 324 322 321 321 320 321 321 320 318 317 317 316 315 314 314 314 315 314 315 316 316 317 319 320 321 321 321 321 321 320 320 320 320 319 319 319 318 318 318 318 318 318 318 318 318 316 316 315 314
314 314 314 313 313 315 317 317 318 319 320 321 322 323 324 325 325 326 326 326 326 326 326 326 326 327 326 325 326 326 326 325 325 325 325 325 324 323 322 322 322 322 322 322 320 319 318 317 316 315 315 315 314 315 316 316 317 319 320 321 322 322 322 322 322 321 322 322 321 320 319 319 318 318 318 317 317 317 317 318 319 317 316 316 314
312 311 311 311 311 312 312 313 314 315 316 317 318 320 321 322 323 323 324 325 325 325 326 326 326 326 326 325 325 326 327 326 325 325 325 325 324 323 323 322 322 323 322 322 321 320 320 318 317 317 316 316 316 316 316 317 318 319 320 321 321 321 320 319 320 320 321 321 321 320 318 318 319 319 319 317 316 316 316 316 317 317 316 316 315
310 309 309 308 309 310 310 310 310 311 312 313 314 316 317 318 319 320 321 322 323 324 325 325 325 326 326 326 326 326 326 326 325 325 325 325 324 324 324 324 323 323 323 323 321 321 321 320 318 318 318 318 319 319 318 318 319 320 319 320 321 319 317 316 316 317 318 318 319 318 316 316 317 319 320 319 316 316 317 317 316 316 315 315 315
308 307 308 307 307 308 308 308 308 308 309 309 311 312 313 314 315 316 318 319 321 322 324 324 324 325 325 325 325 325 325 325 325 325 325 325 325 325 325 324 324 324 323 323 322 322 322 322 320 320 320 321 322 322 320 319 318 318 318 318 319 317 315 315 314 315 317 317 317 318 316 315 316 319 320 319 316 315 316 317 317 317 315 314 313
306 306 306 306 307 307 307 306 306 307 307 307 308 309 310 311 312 313 314 315 316 318 320 321 322 322 323 324 323 324 324 324 324 324 324 324 324 324 324 324 324 323 322 322 322 322 322 322 322 321 321 323 323 322 320 317 316 316 315 316 317 317 316 315 315 316 318 318 317 318 316 316 317 318 317 317 317 317 317 316 317 317 316 314 312
305 305 305 306 306 306 306 305 305 305 305 306 306 307 308 308 310 310 311 312 313 314 315 315 316 318 319 321 321 322 322 323 323 323 323 323 322 323 323 323 323 322 322 322 323 322 322 322 322 322 323 323 323 321 318 315 315 315 315 315 316 317 318 316 316 318 318 318 318 317 315 316 318 317 316 316 318 318 316 315 314 313 313 312 310
304 304 304 305 304 304 304 304 304 303 304 304 304 305 306 307 307 308 309 310 311 311 312 312 312 313 314 315 316 317 319 320 322 322 322 322 322 322 323 323 323 323 323 322 321 320 320 321 322 321 322 322 321 319 317 315 315 315 315 314 314 318 320 318 316 318 318 317 317 315 314 316 317 315 313 315 317 317 314 312 311 310 309 309 308
304 303 304 303 303 302 302 302 302 302 302 302 302 303 304 306 306 306 307 308 310 310 310 310 311 311 311 311 312 313 314 315 317 320 321 321 322 322 322 323 323 323 323 323 321 319 319 320 320 320 319 319 320 319 318 316 315 315 315 314 314 318 320 319 317 317 316 315 315 314 314 315 314 312 311 312 315 316 314 312 311 310 309 308 307
303 303 303 302 302 302 302 301 302 301 301 301 301 302 303 304 304 305 305 306 308 308 308 308 309 309 309 310 310 311 312 312 313 315 317 318 320 320 321 322 323 323 323 323 322 320 320 320 320 319 319 319 319 319 319 317 317 317 316 315 316 318 319 318 316 314 314 313 312 313 315 313 310 310 310 310 311 313 313 312 312 311 309 307 305
301 301 302 301 301 301 301 302 302 300 300 300 300 300 302 302 303 304 303 304 306 306 305 305 306 307 307 308 309 309 310 311 312 312 314 315 316 317 318 319 320 321 323 323 323 322 322 322 321 320 319 319 319 320 320 318 319 319 317 316 316 317 317 316 313 312 312 310 309 312 313 311 308 308 309 308 309 311 312 312 311 310 309 308 305
301 300 301 301 301 301 301 302 302 301 300 300 300 301 301 302 303 303 303 304 305 305 304 304 304 304 305 305 307 308 309 310 311 311 312 313 314 315 316 317 318 319 320 321 322 322 322 322 321 321 320 320 320 320 319 318 318 318 317 316 316 316 315 314 312 311 310 308 308 310 311 308 307 307 307 307 308 310 311 311 310 310 309 309 307
300 300 300 300 300 301 301 301 301 301 301 301 301 301 301 302 302 302 302 303 304 304 304 304 304 303 303 304 305 306 307 309 310 310 310 311 312 313 314 315 316 317 318 319 320 321 322 321 321 321 320 320 320 320 318 317 317 316 316 315 316 315 314 312 311 309 308 307 307 308 307 306 306 306 305 305 306 308 310 310 310 309 309 308 308
299 299 299 299 300 300 301 300 300 300 300 300 301 301 301 301 302 302 303 303 302 302 303 303 303 302 303 303 304 304 305 306 308 308 309 310 311 311 312 313 315 315 316 317 318 320 321 321 321 321 320 319 319 319 318 316 315 315 314 314 315 313 311 310 309 307 307 307 306 305 305 305 305 305 305 304 305 306 309 309 309 308 308 307 306
299 299 298 299 299 300 300 300 300 300 300 300 301 301 301 301 301 302 302 302 302 302 301 302 302 302 302 302 303 303 303 304 305 306 307 309 310 310 311 311 313 314 315 316 318 319 320 320 320 319 319 319 318 318 317 315 314 315 314 313 313 313 310 309 309 308 308 308 306 304 304 304 304 304 304 304 304 304 305 306 305 304 304 303 303
300 300 298 298 299 300 300 300 300 300 300 300 300 301 301 301 301 302 301 300 301 301 301 301 301 301 301 302 302 302 302 302 303 304 305 307 308 309 310 311 312 313 314 315 316 317 318 318 319 319 319 318 318 318 317 315 313 314 313 310 310 311 311 310 310 309 308 308 305 304 304 304 303 303 303 302 302 302 302 302 301 301 300 299 299
300 300 299 298 299 300 300 300 300 300 300 300 300 300 300 300 301 301 300 300 300 300 300 300 301 301 301 301 301 301 302 302 302 303 304 304 306 307 309 309 310 312 313 313 315 317 317 316 317 318 318 317 317 317 316 314 314 313 311 309 309 311 312 311 309 309 308 307 305 304 304 303 302 301 300 300 300 299 299 298 297 296 296 296 298
300 300 299 299 299 300 300 300 300 300 300 300 300 300 300 301 301 300 300 300 300 300 300 300 300 300 300 300 300 301 301 301 301 302 302 303 303 305 306 308 309 311 312 312 313 314 315 315 316 317 316 317 317 315 314 314 313 311 309 309 309 310 311 310 308 309 308 306 304 304 304 302 300 299 298 298 298 297 295 295 295 295 296 298 300
300 300 299 299 299 300 300 300 300 300 300 300 300 300 300 300 300 300 300 300 300 300 300 300 300 300 300 300 300 300 300 301 301 301 301 302 302 303 304 306 308 309 310 311 312 312 313 314 315 316 316 316 316 314 312 313 312 309 308 309 309 309 309 308 308 308 307 305 304 303 302 299 298 298 298 297 295 294 294 295 295 296 298 300 300
300 300 299 299 299 300 300 300 300 300 300 300 300 300 300 300 300 299 299 299 299 299 299 299 299 299 299 300 300 300 300 300 300 300 301 301 301 302 303 304 305 306 308 310 310 311 312 313 314 315 316 316 315 313 311 311 311 309 308 308 308 308 308 308 307 306 305 304 302 300 299 298 297 297 298 297 294 294 295 296 297 297 298 298 297
299 299 299 299 299 299 299 300 300 300 300 299 299 300 299 299 299 299 299 299 299 299 299 299 299 299 299 299 299 299 299 299 299 300 300 301 301 301 303 303 302 304 306 308 309 311 311 312 312 313 314 314 314 312 310 309 308 308 307 306 307 307 307 306 306 305 304 302 300 298 298 297 296 296 297 296 296 297 298 298 298 298 298 297 296
299 298 298 299 299 299 299 299 299 299 299 299 299 299 299 299 299 299 299 299 299 299 298 298 299 298 298 299 299 299 299 299 299 299 300 300 300 301 301 302 301 303 305 307 310 311 311 310 310 309 310 312 312 311 310 308 307 307 306 305 306 306 305 305 305 304 302 300 298 297 298 297 297 297 298 298 299 299 298 298 297 297 297 297 296
298 298 298 298 299 299 299 299 299 299 299 299 299 299 299 299 299 299 298 298 298 298 298 298 298 298 298 298 298 298 298 298 298 299 299 300 300 300 300 300 302 304 306 307 309 310 310 309 308 307 307 309 310 310 309 308 307 306 306 306 306 306 305 304 304 303 301 299 298 298 298 298 298 299 299 300 300 299 298 298 296 295 296 296 295
298 298 298 298 298 298 299 299 299 299 299 299 299 299 299 299 299 298 298 298 297 297 297 297 297 297 297 297 297 297 297 297 298 298 298 299 299 300 300 300 300 301 302 304 306 306 306 307 307 306 305 305 307 309 309 307 306 305 305 306 306 305 304 304 303 302 300 298 298 299 299 299 299 299 299 299 299 298 297 297 296 295 295 295 294
Wind_Speed
13 16 17 17 16 16 15 16 17 17 16 18 17 16 14 13 14 14 13 12 11 10 9 8 8 8 7 7 6 6 5 5 5 4 3 3 3 2 2 3 4 5 6 7 7 5 5 5 7 9 8 7 9 8 10 12 11 11 14 15 13 10 9 8 10 10 6 7 6 5 5 5 4 4 3 3 3 2 2 2 2 3 3 4 4
13 15 17 17 17 17 17 16 18 18 17 17 18 16 14 13 14 15 14 14 12 11 10 9 8 8 7 7 6 6 6 5 6 5 4 3 3 3 3 2 3 4 4 5 6 5 4 4 5 7 7 6 8 7 8 10 8 10 14 15 13 11 8 7 9 10 5 3 4 5 4 4 3 2 2 3 3 2 2 2 3 3 3 4 4
14 14 16 17 17 19 20 17 18 18 16 16 17 17 17 15 15 16 15 15 13 11 11 9 8 7 7 7 6 6 7 7 7 6 4 4 4 3 3 2 3 3 4 4 5 5 5 5 5 6 6 6 7 7 8 10 8 9 11 11 10 9 7 6 5 7 9 7 4 4 3 4 3 1 1 3 3 3 3 3 3 2 3 3 3
16 15 14 16 18 21 20 15 11 9 9 11 13 13 12 11 11 14 14 13 12 10 10 10 9 9 9 8 7 8 8 7 7 6 5 5 4 4 3 3 2 3 4 4 5 5 5 6 6 6 6 6 7 8 8 9 8 8 8 6 6 6 5 6 4 5 10 9 4 2 3 3 2 3 4 3 4 4 3 3 3 3 3 3 3
13 14 14 14 17 17 14 14 10 6 7 7 8 9 7 7 6 5 6 7 10 11 10 11 11 10 10 9 7 8 7 5 5 6 5 4 4 4 4 3 3 3 3 3 3 4 3 3 4 6 7 8 9 11 10 8 7 7 7 5 5 4 1 4 4 3 5 6 6 3 2 2 2 5 6 3 3 4 5 5 4 4 4 4 4
10 13 14 15 13 12 17 20 16 10 7 8 10 10 8 8 7 5 4 2 6 11 11 10 9 9 8 7 5 5 5 4 5 5 4 5 5 5 4 4 4 4 3 3 3 3 3 2 1 3 5 5 5 8 9 8 7 8 7 4 4 3 0 2 4 3 2 3 6 5 2 1 5 7 5 3 4 4 5 6 6 5 5 5 6
11 13 13 13 11 18 19 21 21 17 13 12 15 14 12 11 9 10 10 5 2 8 11 9 7 7 6 5 4 3 4 5 5 4 4 5 5 4 4 3 3 3 3 2 2 2 2 2 1 0 1 2 2 2 3 4 5 5 4 4 4 4 3 4 4 4 4 4 5 5 3 3 9 10 4 2 4 4 4 6 8 7 7 8 7
10 10 10 8 14 19 18 19 23 22 21 21 20 19 18 15 13 13 13 10 5 5 10 9 6 7 6 4 3 3 4 4 5 4 4 5 4 3 3 3 3 3 3 2 2 2 1 1 1 1 1 2 2 3 2 3 3 2 2 3 4 4 3 4 4 4 4 4 5 5 4 5 8 9 6 3 3 4 5 5 7 8 8 9 8
9 8 6 12 16 16 16 17 21 24 26 29 29 27 24 20 16 13 11 11 7 6 10 9 7 8 5 4 3 4 5 4 4 4 4 4 3 2 2 3 3 3 3 3 3 2 2 1 0 0 1 2 1 2 2 3 4 3 3 2 2 2 1 1 2 3 2 3 4 5 7 8 7 8 9 7 4 3 5 5 6 7 8 8 8
8 5 11 19 16 16 17 18 20 21 21 27 32 29 27 23 18 14 10 9 7 8 11 11 10 10 7 5 4 4 4 3 4 4 4 3 3 2 2 2 3 3 3 3 3 2 2 1 1 1 1 2 2 2 3 4 5 5 4 4 4 3 3 2 2 3 3 3 4 5 7 8 9 9 8 5 4 4 5 6 7 7 7 7 7
5 5 15 21 23 24 21 19 20 20 19 22 27 28 26 24 21 16 12 10 8 7 11 13 12 11 9 7 5 4 3 3 3 3 3 3 3 2 1 1 2 3 3 3 2 2 2 2 2 3 3 4 4 4 3 4 5 6 5 5 5 4 4 4 3 4 4 4 3 2 2 3 4 6 8 8 7 5 6 6 8 8 9 8 6
7 9 13 13 17 22 22 21 20 21 19 16 19 25 26 23 21 16 12 11 10 8 8 12 13 12 10 8 6 4 3 2 3 3 3 3 3 3 2 2 2 3 3 3 2 2 2 3 3 4 5 5 5 4 4 4 4 6 7 6 6 6 6 6 5 4 4 4 3 4 4 5 4 4 6 6 4 7 7 6 8 9 8 9 8
8 10 12 8 10 16 21 21 19 20 24 23 21 25 26 24 21 18 13 9 8 8 8 9 11 12 12 10 8 7 5 3 3 4 3 3 3 3 3 3 3 4 4 3 2 2 2 3 3 4 5 6 6 6 6 6 5 5 7 7 6 7 7 6 6 6 5 5 4 3 4 5 4 4 3 2 4 7 6 5 8 8 7 8 8
9 10 13 11 12 16 19 20 18 21 29 32 30 28 29 28 26 22 18 13 10 9 9 9 10 11 12 12 11 10 8 6 5 6 4 3 3 3 3 3 4 4 5 4 3 3 3 3 3 4 5 6 7 7 8 8 7 7 8 8 8 8 8 9 8 7 7 6 4 4 5 6 6 5 3 3 5 6 5 5 7 7 5 7 8
8 11 14 14 13 16 19 20 21 22 22 23 25 28 30 31 30 27 24 20 16 13 12 10 11 12 12 13 12 10 9 8 7 7 6 5 5 4 3 4 5 5 5 4 3 3 4 4 4 4 5 6 7 8 8 8 8 9 9 9 9 9 9 10 9 8 8 7 6 6 7 7 6 5 3 3 4 5 4 5 6 5 4 4 5
7 11 15 15 14 15 16 18 19 18 18 19 21 26 29 29 30 30 28 26 23 19 16 13 12 12 13 15 13 12 11 9 7 9 9 7 7 6 5 5 6 6 6 5 4 4 4 4 5 5 5 6 7 7 8 8 8 9 9 8 9 9 9 9 9 9 9 8 8 7 7 8 7 6 5 5 4 4 5 5 5 5 4 4 4
8 10 13 14 14 11 10 13 15 16 18 20 20 23 26 27 28 28 25 26 27 24 18 14 12 12 14 14 13 12 11 9 9 10 10 9 8 7 6 6 7 7 6 6 5 5 4 5 6 6 6 7 7 7 8 8 8 8 8 8 8 8 9 9 9 9 9 9 8 8 8 9 8 8 8 7 6 6 6 5 3 4 2 2 4
10 10 11 12 13 12 12 13 14 16 17 18 17 17 18 20 21 21 19 21 23 21 19 16 13 12 11 10 11 11 11 11 11 12 11 10 9 9 8 8 7 7 7 7 7 6 5 5 6 7 8 8 8 8 9 9 9 9 9 8 8 8 9 9 9 9 9 9 8 9 9 9 9 9 9 8 7 6 5 3 1 1 3 5 2
11 11 10 10 12 14 14 13 14 16 16 16 15 13 13 13 13 11 13 17 19 18 20 19 15 13 12 11 11 11 12 12 12 13 13 11 11 11 10 9 8 8 8 8 8 7 6 6 7 7 8 9 8 8 9 9 9 9 9 9 9 8 9 9 9 9 9 9 9 9 10 10 9 9 9 8 7 6 5 4 3 4 5 7 5
10 10 9 8 10 13 12 13 15 15 15 15 14 13 13 13 13 10 11 16 18 17 19 19 16 13 12 11 12 12 12 12 13 14 14 12 12 12 11 10 10 10 10 9 8 8 7 7 7 8 8 9 9 9 9 9 10 10 10 10 9 9 10 10 9 9 9 9 9 9 9 8 7 7 8 7 6 6 5 5 5 5 5 6 5
10 10 9 8 9 12 13 13 15 14 14 14 13 13 14 13 14 12 11 13 14 14 15 16 14 12 11 11 12 12 12 12 13 14 14 13 12 12 11 11 10 10 11 11 9 8 8 8 8 8 8 9 9 9 9 10 10 10 10 10 10 10 10 10 9 9 9 8 8 8 8 7 5 6 6 4 5 5 4 4 4 3 4 3 2
10 10 9 9 10 13 13 13 14 13 14 14 13 13 14 14 15 14 13 14 13 12 13 13 13 12 11 12 12 12 12 12 13 13 13 13 11 11 12 12 11 10 11 11 10 9 9 9 9 8 9 9 9 9 9 9 10 11 11 10 10 10 10 10 9 9 8 7 7 7 7 5 4 4 2 2 5 4 3 4 2 1 3 1 1
9 8 9 10 11 12 12 12 12 12 12 13 12 12 13 15 16 17 17 16 14 12 12 12 12 11 11 12 12 11 11 12 12 13 12 11 10 11 12 12 11 10 9 10 10 10 9 9 9 9 9 9 9 9 9 9 10 11 11 10 9 10 10 9 9 9 8 7 7 6 6 5 4 3 1 2 3 1 3 3 3 1 2 2 2
10 9 9 11 12 12 12 12 12 12 12 13 12 12 13 13 15 16 16 15 14 12 12 12 12 12 12 13 13 12 12 12 12 13 12 10 9 10 11 12 11 10 9 9 9 10 10 9 9 9 9 9 9 9 9 10 11 11 10 10 10 10 10 9 8 8 8 8 7 6 6 5 4 4 2 1 3 1 3 1 3 2 1 2 1
12 12 11 11 11 11 13 13 11 11 11 12 13 13 14 14 14 15 15 15 15 14 14 14 13 12 12 13 14 13 13 12 12 13 12 10 9 9 10 11 10 10 10 9 9 10 11 10 10 10 10 10 10 10 10 10 10 10 10 10 10 9 9 8 7 7 7 7 7 6 6 6 5 4 3 3 3 2 2 2 3 4 4 4 3
13 14 13 12 11 11 13 14 13 12 11 11 12 12 13 14 14 14 14 15 15 14 14 15 14 13 12 13 13 13 13 12 12 12 12 10 8 9 10 10 10 10 10 10 10 11 11 11 11 11 11 11 11 11 11 11 10 10 10 10 9 9 8 7 7 7 6 6 6 5 5 5 5 5 4 4 3 3 3 3 3 5 5 2 3
13 14 14 14 12 12 13 13 13 13 12 12 12 12 13 14 14 13 12 12 12 12 13 13 13 12 11 12 12 11 11 12 12 12 11 10 10 11 11 10 10 11 11 12 12 11 11 12 12 12 12 12 13 13 12 12 12 11 10 10 9 9 8 7 7 6 6 6 5 5 4 5 5 5 6 6 6 5 6 6 6 6 7 5 3
15 15 15 16 14 13 13 13 12 12 12 12 13 13 13 13 12 12 11 10 9 10 11 11 11 10 10 9 9 9 9 10 11 11 11 11 11 12 12 11 10 11 12 13 13 13 13 12 13 13 13 13 14 13 13 13 13 12 12 11 10 9 8 7 7 6 5 5 4 3 3 4 5 7 7 7 6 6 7 7 7 7 8 7 6
16 16 16 16 15 14 15 15 13 12 11 11 12 13 13 12 11 11 10 9 8 9 10 9 9 8 8 7 7 7 8 8 9 10 11 12 11 11 11 11 10 11 12 13 13 14 14 14 14 14 14 14 14 14 14 15 14 13 13 12 10 9 7 6 5 4 4 4 4 3 3 5 6 8 9 9 9 8 8 8 8 7 8 8 7
16 16 16 15 15 16 17 17 16 15 14 12 11 11 10 11 11 11 10 9 8 8 8 7 7 6 6 6 6 6 7 8 8 9 10 11 11 10 11 11 10 11 11 12 13 14 15 16 15 15 15 15 15 15 16 16 16 14 13 12 11 9 7 6 3 1 1 3 3 3 5 7 8 9 11 13 13 12 12 12 12 10 9 9 8
15 15 15 15 15 16 17 17 17 17 16 15 13 12 10 9 9 8 9 8 8 8 7 6 6 5 4 4 5 6 6 7 7 8 8 9 10 10 10 11 11 11 11 12 14 15 16 16 17 17 17 17 15 16 18 19 18 16 13 11 11 10 10 8 5 7 7 5 5 7 7 7 7 8 9 10 10 9 10 12 13 14 14 12 11
14 14 14 14 14 15 16 17 17 17 17 16 15 14 13 11 9 8 7 7 7 7 6 6 5 4 4 3 3 4 5 5 5 7 7 7 8 9 10 11 11 12 12 13 15 16 16 16 17 18 18 18 16 19 22 22 21 19 14 10 9 9 9 11 13 15 13 9 9 9 7 8 8 8 8 8 9 9 8 9 11 13 15 16 16
13 13 13 13 14 15 16 17 17 17 17 17 16 15 14 12 11 9 8 8 8 7 7 7 5 4 4 3 1 2 2 2 3 4 4 5 6 7 9 11 12 13 14 15 16 16 16 16 17 17 18 18 17 21 26 26 23 20 16 12 10 9 10 9 10 13 12 11 11 9 9 10 9 10 9 8 8 8 7 7 9 11 15 18 19
12 13 13 13 14 15 16 17 17 17 16 16 16 15 14 12 11 10 8 8 8 9 8 8 7 7 6 4 2 1 1 1 1 2 3 4 5 7 8 10 11 13 14 15 16 16 16 16 16 16 16 16 16 19 25 25 23 20 19 16 12 11 12 11 11 12 12 12 11 9 9 9 8 7 7 6 7 7 6 6 7 9 12 14 15
11 12 13 14 15 15 16 16 16 16 16 16 16 16 14 12 11 10 9 8 8 8 9 8 8 8 7 6 5 3 2 2 3 4 5 6 6 7 8 9 10 11 13 15 17 18 18 17 18 17 18 18 17 18 22 24 23 22 22 20 16 14 14 14 13 13 13 12 9 8 8 8 7 7 7 8 7 5 4 5 6 7 6 6 9
11 11 12 13 13 13 13 14 14 15 16 16 16 16 14 13 12 12 10 8 7 8 8 8 8 8 7 7 6 5 4 3 4 4 6 7 7 8 9 9 10 11 12 14 17 20 21 20 21 21 21 21 20 20 24 27 26 25 25 23 19 15 14 14 13 12 12 10 8 7 7 7 7 6 6 8 10 7 5 6 8 9 7 7 9
11 11 11 10 9 9 10 10 12 14 15 14 15 15 15 14 14 14 14 11 9 8 8 8 8 8 8 7 6 6 5 5 5 5 6 6 6 7 8 9 11 12 12 13 15 18 19 20 21 23 22 21 21 22 25 26 23 23 25 26 21 17 16 15 15 13 12 11 10 9 8 8 7 6 6 8 11 10 7 7 9 8 7 6 7
9 8 7 7 6 6 6 7 9 11 12 12 12 12 12 11 10 10 12 11 9 8 8 8 8 8 8 8 8 7 7 7 7 7 7 7 7 8 9 10 11 12 13 14 14 15 16 17 19 21 21 21 22 22 23 22 21 21 24 24 22 19 16 15 16 14 11 12 13 12 10 9 8 8 7 9 12 10 7 7 8 8 7 6 5
8 7 6 5 4 3 3 4 6 7 8 8 8 7 7 7 7 7 8 7 7 8 9 9 9 9 9 9 8 8 8 8 8 9 9 9 9 9 10 10 11 12 13 14 15 15 16 17 17 17 19 19 19 19 20 20 19 21 23 24 22 19 17 16 15 14 11 12 14 14 13 10 9 9 9 11 13 10 6 7 7 7 7 7 7
8 7 6 5 4 4 5 5 5 5 5 5 5 5 5 5 6 6 7 6 7 9 10 10 10 11 11 10 10 9 9 9 10 10 10 10 10 11 11 12 12 13 14 14 14 15 16 17 17 16 17 18 17 17 18 18 18 21 23 23 21 19 19 16 14 13 12 12 14 14 13 11 10 11 10 11 12 9 6 5 6 4 4 5 7
7 6 6 6 4 4 5 5 5 5 5 5 5 6 6 6 6 6 6 7 8 9 10 10 11 11 11 11 11 11 11 11 12 12 12 12 12 12 13 13 14 15 15 15 15 15 15 16 17 16 17 17 18 19 19 17 18 21 24 23 19 19 20 17 16 17 16 14 13 13 14 13 12 12 11 10 11 10 8 7 5 3 5 7 6
5 4 5 6 4 3 5 5 5 5 6 6 6 7 7 7 7 8 8 9 10 10 11 12 12 12 12 12 13 13 13 14 14 13 14 14 14 14 15 15 16 16 17 17 16 16 15 15 16 16 16 17 18 21 22 20 20 23 26 24 19 18 20 20 21 21 18 15 14 14 16 15 13 12 11 10 10 10 9 7 6 4 5 5 3
4 4 5 6 4 4 5 5 4 5 5 5 6 6 6 7 7 8 9 10 11 11 12 12 12 13 13 14 14 15 15 15 15 15 15 16 16 16 16 17 17 17 18 19 18 18 17 16 15 14 14 15 17 20 23 23 21 23 25 24 18 16 18 22 22 20 16 15 15 16 17 16 13 11 10 9 8 8 7 5 4 4 4 4 3
4 4 5 6 5 4 5 4 4 4 4 4 4 4 4 6 6 6 7 9 9 10 11 11 12 13 14 15 16 16 16 16 16 17 17 18 18 18 18 18 18 18 19 20 20 19 18 18 18 15 15 16 16 17 19 21 21 22 26 25 19 17 21 21 19 16 16 16 16 17 17 15 13 11 9 8 6 5 4 3 3 2 1 0 1
4 5 6 7 6 5 4 4 4 4 3 3 3 4 5 6 6 6 8 9 10 10 11 11 12 13 14 15 16 17 18 18 18 18 19 19 20 19 19 20 19 19 20 21 21 20 20 20 19 17 16 17 16 14 16 20 22 27 30 25 19 21 24 19 14 15 18 16 14 15 16 14 12 9 7 6 5 4 3 3 2 2 2 1 1
5 5 6 7 6 4 4 5 5 5 4 4 5 6 7 8 9 10 11 12 13 14 14 14 14 14 14 15 16 16 17 18 19 20 21 21 21 21 21 21 21 21 21 22 22 21 20 20 19 19 18 17 16 14 17 23 28 32 32 24 19 22 23 18 15 18 18 14 13 15 15 13 11 9 7 6 5 5 4 3 3 3 2 0 2
5 6 6 6 5 4 5 5 5 5 6 6 7 8 9 11 12 13 14 15 16 16 17 17 18 18 17 17 17 17 17 18 19 20 21 22 22 22 22 22 22 22 22 23 23 23 22 18 17 18 17 17 16 15 19 27 32 32 30 24 22 24 23 19 19 19 17 15 15 16 15 13 11 10 9 7 5 4 4 3 3 3 1 0 1
6 6 6 6 4 4 5 6 7 8 9 9 10 11 12 14 15 16 17 17 18 18 19 19 20 20 20 20 20 19 19 19 19 19 21 22 22 22 22 23 24 24 23 24 23 21 19 13 10 13 14 14 14 15 21 29 32 30 27 25 25 26 24 23 22 20 19 19 18 16 14 12 10 10 9 8 5 5 5 3 2 3 3 2 2
6 6 6 5 4 5 6 7 8 10 11 11 12 13 14 15 16 17 18 19 19 20 20 20 20 20 20 19 19 20 20 21 20 20 21 22 23 23 22 23 23 21 21 21 17 13 11 7 3 8 13 15 16 16 20 27 31 31 28 26 26 26 24 23 23 23 22 21 19 16 14 11 10 10 9 8 8 7 5 4 3 2 3 3 2
7 6 5 4 5 6 7 8 9 10 11 12 13 14 15 16 17 18 19 19 20 20 20 19 18 18 18 18 18 19 19 20 20 20 21 22 24 25 26 27 24 19 16 15 12 9 7 3 4 5 7 15 22 22 21 25 28 29 28 26 25 24 23 22 23 23 22 21 18 15 13 12 11 10 9 9 8 7 6 6 5 3 3 2 0
7 6 5 4 5 6 6 8 10 10 11 13 14 15 16 17 18 19 19 18 18 18 17 17 17 17 17 17 18 18 19 19 19 20 20 22 23 24 25 27 28 26 21 17 14 12 9 7 4 2 4 7 17 24 26 27 27 27 26 25 25 25 23 23 24 22 20 18 15 14 13 13 11 10 9 8 8 7 6 6 6 5 4 2 1
Wind_Direction
176 179 181 184 179 174 176 180 183 187 186 178 171 168 165 160 157 157 154 155 158 151 142 141 135 126 127 129 124 123 112 115 118 92 86 81 72 91 109 138 160 159 168 168 165 178 190 191 182 165 166 194 200 191 185 179 174 178 191 204 203 193 203 203 174 163 121 108 118 96 95 93 104 128 124 117 119 121 116 95 87 66 63 71 69
178 178 181 185 183 177 180 185 184 185 183 172 163 164 165 160 160 160 157 159 160 153 147 143 137 133 135 131 127 127 114 108 115 104 98 99 84 84 90 120 140 140 153 156 155 163 179 192 183 162 153 183 201 190 180 180 179 183 189 199 198 185 189 194 175 159 139 143 137 115 116 105 107 145 127 119 133 129 123 110 100 85 69 64 58
190 184 180 185 189 184 180 183 185 182 175 165 157 162 167 162 163 162 157 160 157 147 144 136 127 123 119 116 109 107 96 75 81 95 105 109 95 81 79 95 115 133 143 144 149 160 177 178 168 163 156 178 209 204 178 176 191 201 201 203 191 180 182 188 186 158 155 162 143 132 156 144 132 156 120 119 125 120 124 121 111 97 84 74 63
191 183 183 185 190 187 177 168 171 171 162 162 153 152 158 152 157 160 154 155 148 135 132 123 114 106 101 100 83 80 90 82 84 94 95 104 102 93 87 89 95 108 127 137 150 163 178 175 167 166 167 180 200 205 191 182 191 203 211 213 195 194 183 170 188 174 158 154 148 148 149 160 170 150 137 126 131 134 123 107 97 91 90 90 84
187 182 188 192 192 179 147 106 79 70 50 47 91 94 75 71 76 113 133 139 133 125 123 119 114 106 101 102 87 84 96 101 104 101 99 108 108 101 92 89 87 76 86 103 121 146 155 161 168 158 165 185 188 188 192 196 204 207 209 213 212 234 251 153 172 185 167 146 142 149 139 173 179 151 146 133 130 132 119 109 95 82 77 76 77
197 191 191 196 184 129 106 99 97 113 97 72 106 112 101 89 76 96 118 97 119 127 125 120 118 113 111 116 113 111 114 107 106 108 113 113 104 103 93 82 81 73 74 79 83 106 106 105 158 144 154 184 193 187 187 195 216 217 202 200 223 234 126 172 172 161 193 156 155 170 168 163 162 165 171 146 121 101 94 100 91 83 77 71 70
215 204 194 189 148 102 109 124 126 134 131 116 122 128 134 129 117 131 134 108 116 133 122 113 111 114 118 117 115 116 106 96 101 108 108 103 102 107 98 86 86 80 83 88 86 86 79 85 76 63 169 191 211 207 188 196 229 233 195 183 218 212 176 199 196 171 184 189 181 171 128 131 158 162 161 131 134 116 95 87 77 71 68 66 67
221 216 198 156 108 104 118 128 129 132 131 126 124 127 134 129 115 122 125 119 141 138 115 113 113 113 114 110 106 96 95 101 112 114 103 102 111 112 110 114 108 99 101 103 103 94 74 63 46 319 259 237 216 208 200 194 215 237 185 172 203 202 187 207 196 178 176 174 174 169 154 144 147 148 145 166 188 140 124 104 82 77 71 67 65
217 225 170 99 89 106 120 127 135 138 138 138 135 133 133 124 107 100 97 105 124 127 116 118 117 112 103 89 85 82 95 118 125 115 105 108 115 106 110 118 109 108 117 118 114 104 98 84 15 338 301 290 241 179 163 156 166 175 159 152 161 154 148 169 160 161 175 164 160 172 169 150 152 172 166 169 205 159 131 120 110 101 86 78 76
217 214 111 105 116 129 130 139 142 135 133 132 131 132 134 131 122 111 101 102 108 118 124 122 116 116 108 88 91 91 96 113 115 113 118 118 119 113 113 124 126 126 126 134 139 118 103 92 88 96 62 20 51 94 127 136 143 148 140 130 122 124 129 115 130 144 150 162 165 174 173 159 170 181 161 165 213 169 130 135 138 125 104 92 91
199 141 116 134 151 146 135 136 136 129 123 122 128 134 137 138 138 137 141 146 138 129 134 132 124 122 122 121 125 113 94 99 112 123 136 133 135 141 149 144 135 131 131 143 144 118 94 84 98 104 91 77 77 94 120 130 135 136 130 127 123 120 120 115 106 111 132 156 163 141 106 112 139 144 148 185 204 145 125 143 138 125 119 112 101
184 144 129 151 155 140 132 129 129 126 119 120 132 139 142 144 145 147 155 163 157 139 134 138 133 130 133 137 139 131 117 111 128 147 156 154 153 154 160 152 143 143 143 144 135 124 112 107 113 110 96 90 93 99 101 107 122 129 128 126 124 118 116 123 123 114 125 129 93 69 76 90 94 115 149 186 170 127 137 151 134 129 124 116 113
191 147 131 152 149 136 134 130 128 132 139 148 151 149 152 152 153 160 167 174 171 152 137 136 137 137 139 141 144 147 154 161 159 160 163 158 148 152 163 163 160 155 150 146 137 139 134 125 124 111 100 94 93 93 90 92 99 109 115 115 117 114 107 110 111 101 97 99 100 97 97 102 95 94 118 109 105 131 154 148 128 128 126 124 131
190 147 134 147 146 138 138 136 141 156 160 159 159 160 163 162 163 169 174 181 191 180 161 147 142 142 144 150 157 159 160 168 170 160 156 148 137 151 165 160 160 154 145 144 145 148 142 132 124 110 105 101 97 96 90 89 91 90 91 94 96 93 87 89 94 94 92 93 95 84 78 78 77 83 101 105 121 142 151 138 123 120 135 144 144
167 135 132 138 141 142 146 152 166 177 168 156 159 165 168 168 168 170 175 182 189 193 190 179 159 150 155 165 168 165 165 169 163 150 146 144 136 144 157 152 154 149 140 138 137 140 134 127 124 115 110 107 104 105 99 92 93 91 87 88 89 89 90 94 95 93 89 86 82 81 85 84 82 91 98 98 128 141 134 128 122 127 149 140 125
113 116 127 136 145 147 154 167 177 177 163 155 164 170 170 172 172 172 175 182 188 196 200 192 174 167 179 184 174 163 164 165 156 144 141 140 138 141 150 152 149 143 137 136 135 137 137 132 127 121 116 114 112 110 104 99 97 97 96 94 94 94 97 98 98 96 92 89 87 87 93 85 76 80 77 69 80 104 119 125 129 146 149 122 114
108 116 128 140 145 146 166 178 170 162 162 165 169 172 171 170 175 177 175 179 188 193 191 182 176 183 192 189 174 163 165 164 153 145 142 143 142 138 140 146 146 142 139 138 136 136 136 132 127 126 123 119 117 111 107 107 105 103 103 99 96 95 95 96 98 99 96 94 92 90 94 89 78 77 76 73 70 83 115 130 146 170 169 148 159
122 120 122 132 140 152 170 168 155 153 163 166 161 163 166 165 174 181 176 178 184 186 185 181 179 186 189 183 172 167 165 159 151 150 150 150 147 142 141 143 149 151 147 142 139 137 138 137 131 130 128 124 121 116 114 115 112 109 107 102 101 100 99 97 98 99 97 96 94 90 89 85 79 79 79 83 81 81 106 109 40 123 338 332 136
116 109 107 116 132 147 151 143 142 145 150 153 147 146 153 155 162 173 183 190 189 188 192 190 185 189 191 184 174 168 163 157 155 155 155 153 152 153 154 154 157 161 156 149 144 144 150 148 140 137 135 130 127 124 122 121 119 117 114 111 110 111 109 107 105 105 103 100 95 91 91 88 86 88 85 84 86 81 94 94 65 67 26 7 49
102 101 102 110 126 136 135 131 134 137 139 143 143 144 148 150 151 162 191 201 195 191 192 190 186 190 193 185 176 169 164 161 161 159 155 154 157 161 165 164 165 171 166 156 150 155 161 160 153 149 143 138 135 133 131 128 126 125 124 122 122 122 119 117 116 115 113 111 106 99 96 93 90 93 90 86 86 73 71 82 76 71 57 38 45
88 97 104 115 127 131 132 132 133 134 138 144 151 152 148 149 155 166 189 198 190 183 181 181 183 189 190 185 176 169 166 167 166 159 152 154 160 167 173 173 177 180 171 159 157 165 170 170 167 159 150 145 141 138 138 136 133 130 128 128 129 129 125 120 120 121 119 116 112 106 102 95 86 97 106 107 105 99 86 89 92 93 87 58 40
76 87 97 108 117 122 125 128 132 136 140 146 154 156 151 153 161 170 186 194 189 179 176 177 182 187 188 183 173 167 167 171 171 164 156 159 165 174 179 179 181 182 174 167 165 169 175 176 172 165 157 151 146 145 144 141 137 132 130 133 133 132 127 124 127 126 123 120 115 114 111 101 91 101 120 112 115 145 173 131 119 92 94 87 3
86 90 94 99 107 117 119 118 125 131 134 139 147 155 159 161 165 171 181 187 186 180 178 179 183 187 189 184 176 174 174 175 177 173 166 167 175 180 181 178 177 176 176 175 170 171 177 179 175 169 163 159 153 151 149 145 142 138 136 137 135 133 131 133 137 136 133 131 126 124 121 114 113 120 60 49 100 237 278 105 102 56 76 87 36
95 97 100 104 112 120 115 106 111 119 127 135 141 150 156 160 164 168 173 176 175 175 174 176 182 185 186 185 181 181 180 179 184 183 178 180 182 180 180 177 174 175 177 178 176 177 181 181 180 175 169 165 161 158 157 153 149 147 145 142 140 141 142 145 149 147 144 144 143 144 141 137 139 140 141 109 130 235 305 84 136 183 176 136 84
93 91 91 98 105 111 111 107 105 110 124 135 136 141 148 155 158 158 162 163 162 166 167 166 171 171 171 178 180 181 184 185 189 191 190 191 188 185 186 181 179 179 180 181 182 185 187 186 186 183 176 173 170 168 165 160 156 155 153 151 149 149 150 152 154 152 152 154 158 163 161 160 165 163 169 175 165 196 267 241 208 225 219 178 171
87 83 79 85 92 97 106 112 114 113 117 118 118 124 132 138 144 148 152 153 153 160 161 157 162 164 162 170 174 180 187 190 192 194 195 200 202 200 196 189 187 188 188 189 189 192 194 192 192 191 187 182 178 177 175 168 164 161 158 157 156 156 158 161 163 165 168 170 174 182 185 184 191 198 205 211 206 214 254 264 249 265 272 220 178
80 77 74 78 83 88 98 106 112 116 116 111 112 119 122 124 129 132 135 139 144 151 151 150 157 162 162 166 170 177 184 187 192 197 201 207 210 208 205 201 198 197 196 196 196 198 199 199 198 197 194 191 186 185 181 176 173 170 165 163 159 160 165 165 170 179 183 186 193 201 212 220 227 233 230 235 239 232 239 255 257 267 280 274 237
77 75 73 73 73 76 85 92 98 107 113 116 118 121 120 119 118 117 120 128 136 142 145 148 152 153 155 162 170 178 186 192 198 204 209 212 211 209 208 208 207 205 204 205 204 203 203 204 204 201 198 195 192 191 187 182 181 175 170 168 166 169 172 172 179 188 188 196 209 217 238 250 254 255 246 242 249 242 234 245 252 254 260 262 257
77 74 72 71 70 70 71 75 82 90 99 109 115 116 116 115 116 120 122 124 133 139 140 142 145 146 149 157 168 178 188 198 204 209 212 211 210 208 207 207 208 210 211 212 212 208 205 207 207 204 201 197 195 195 191 187 185 178 175 172 167 163 161 161 173 187 200 221 226 213 241 264 263 259 251 242 244 245 241 244 250 255 259 253 245
78 74 72 69 68 69 67 66 68 70 76 86 96 104 112 116 120 124 122 120 124 126 123 124 129 136 147 159 172 182 190 197 203 208 209 207 208 208 211 215 216 218 219 219 221 217 211 210 209 205 202 197 196 197 193 189 184 180 180 178 169 163 163 158 136 63 263 255 260 259 257 254 252 259 262 257 250 249 246 243 243 247 252 243 233
78 74 72 68 64 62 61 60 59 59 60 64 71 79 86 94 105 111 109 108 106 102 102 109 115 123 137 151 162 175 189 195 199 205 208 209 211 212 218 224 225 230 231 227 227 223 216 215 214 209 203 198 196 197 192 187 181 174 174 176 175 182 195 207 243 286 292 280 275 278 265 247 249 262 270 268 261 256 250 242 239 239 238 229 224
74 71 69 66 61 56 53 52 50 50 50 49 53 62 64 65 71 80 91 97 94 93 99 102 105 114 120 126 145 164 177 185 192 202 206 210 218 220 225 229 229 231 234 232 230 226 221 220 217 213 207 200 198 199 194 188 185 181 179 186 193 208 231 249 260 267 272 271 261 248 222 220 238 239 239 253 262 260 255 246 239 235 232 227 224
65 63 61 57 54 50 46 45 43 42 41 39 39 43 47 50 54 61 74 87 89 88 86 83 81 83 91 96 109 137 154 171 190 207 209 213 224 229 231 234 234 233 232 231 229 227 225 222 217 217 211 200 200 203 198 194 194 195 200 208 211 222 234 240 244 247 252 256 252 232 204 206 221 222 221 231 240 243 247 248 242 233 231 230 228
56 55 52 46 44 43 38 37 36 34 34 34 32 30 31 36 41 45 53 67 78 79 73 68 64 59 57 53 39 24 359 293 246 238 233 231 236 240 241 241 239 235 229 225 224 226 229 224 216 215 210 202 204 208 203 200 203 210 219 222 216 215 211 199 201 220 234 242 242 233 220 209 197 199 204 195 207 232 247 245 231 223 228 232 231
54 49 44 38 34 33 30 27 25 24 26 28 24 19 19 24 27 28 33 43 57 66 65 58 53 51 47 39 29 18 356 312 273 252 244 241 238 241 243 241 240 235 226 223 223 227 234 229 216 212 213 214 217 216 214 218 225 228 229 227 223 219 208 198 201 214 224 227 223 220 217 196 175 185 194 181 184 208 220 198 182 179 186 195 198
58 51 47 41 32 29 27 23 21 20 19 19 16 11 10 13 14 11 11 22 39 48 49 45 39 36 31 26 22 14 358 326 293 269 254 248 242 241 241 236 236 235 229 227 227 229 234 231 221 218 220 222 224 225 229 238 244 242 236 232 229 220 206 196 194 200 204 198 193 203 197 172 169 190 193 179 176 171 165 163 158 152 150 164 186
59 54 51 44 33 30 27 22 23 21 16 13 10 9 7 6 7 1 356 1 14 21 24 24 21 18 12 7 4 359 350 334 314 291 273 264 259 253 249 241 237 237 234 231 230 231 233 229 225 225 227 229 233 234 234 237 240 238 235 231 224 214 204 191 180 183 187 178 176 186 178 159 167 178 171 172 171 164 162 165 160 155 153 164 195
81 73 69 59 43 34 29 29 30 23 14 9 8 7 0 354 357 355 344 344 348 352 356 358 355 353 349 347 347 343 338 332 319 307 298 292 281 270 263 252 245 244 243 241 239 238 235 231 229 230 231 235 236 234 231 228 225 228 229 223 214 207 199 183 171 172 178 185 188 180 160 153 165 165 158 164 163 158 167 176 167 167 168 160 175
79 67 63 66 61 48 44 47 42 28 13 1 359 358 347 336 340 335 325 326 332 334 337 339 337 334 330 327 325 323 323 321 315 312 311 304 292 282 275 266 258 254 250 247 245 242 240 237 235 234 235 236 233 230 229 223 218 221 220 214 207 199 184 171 166 163 164 182 191 180 165 165 167 158 155 160 160 159 176 186 178 190 206 193 168
64 50 35 35 41 38 33 30 28 23 8 350 345 340 327 321 322 318 317 325 329 328 329 329 328 324 319 314 310 309 309 307 304 304 304 300 294 289 281 273 268 262 256 252 247 243 240 238 236 233 232 230 226 225 222 214 212 215 210 204 197 182 167 159 155 155 159 170 177 175 173 172 166 163 164 165 167 166 157 164 181 207 208 166 144
58 52 31 20 24 29 21 11 7 3 351 343 341 329 321 321 318 317 323 328 325 322 320 318 316 312 308 304 302 301 300 298 296 294 292 289 286 284 281 276 270 265 262 257 251 246 242 238 237 233 228 225 224 223 216 208 208 205 197 194 188 171 165 166 167 173 178 171 163 167 171 168 165 168 170 169 174 175 163 159 173 177 156 144 136
58 65 39 14 8 16 6 357 357 354 346 345 340 330 328 329 324 324 330 328 324 320 314 310 307 303 300 297 294 292 290 288 287 285 283 282 279 277 275 272 268 265 262 258 254 249 243 239 236 230 227 224 221 221 218 210 203 197 191 190 183 169 170 174 175 182 184 166 155 165 168 167 168 170 172 174 179 185 188 192 199 203 200 204 216
42 55 34 3 351 4 358 350 353 351 343 341 337 333 336 332 321 322 326 323 320 317 314 311 308 304 301 297 292 289 285 281 278 276 274 274 274 273 270 267 263 261 258 255 252 248 244 243 237 226 225 222 212 213 219 215 204 196 190 188 186 181 180 179 180 184 176 154 156 169 168 167 171 171 173 176 175 183 197 203 208 219 235 251 264
22 33 21 353 345 355 353 348 354 350 340 333 327 321 320 315 307 309 316 314 313 312 309 309 307 303 301 300 296 293 288 282 278 275 271 269 267 266 266 265 261 257 254 251 249 244 241 242 237 225 222 219 207 206 215 214 206 192 182 185 197 198 190 188 187 179 159 149 161 173 169 167 171 170 168 168 166 173 184 181 193 221 242 274 259
10 19 7 350 345 349 352 352 352 348 344 337 326 316 316 319 322 324 325 321 320 317 311 308 306 303 301 300 297 295 291 286 280 276 271 268 265 262 260 259 256 254 252 249 246 243 239 237 234 227 223 216 201 197 207 205 196 185 180 184 194 188 180 180 174 159 154 157 168 171 166 165 166 159 155 160 159 156 160 162 159 133 94 93 260
4 9 0 347 340 344 354 353 349 350 351 344 336 329 326 330 331 328 325 323 320 316 311 308 306 304 301 298 295 293 292 288 284 278 271 266 263 259 257 255 253 253 251 248 247 245 241 236 230 227 221 205 187 184 192 189 184 181 181 184 184 176 172 168 157 152 155 160 161 161 161 159 153 143 141 150 155 151 143 126 106 102 100 218 260
0 4 355 343 339 349 355 349 344 344 343 338 334 329 326 327 326 324 321 318 314 311 307 306 304 302 301 298 295 294 291 288 287 283 276 269 264 259 256 253 252 251 250 249 249 248 246 241 234 231 219 195 181 179 178 177 179 180 181 180 178 173 169 162 154 151 154 158 157 158 160 157 150 149 155 159 153 138 131 121 112 123 137 218 246
358 1 349 337 343 353 346 339 339 336 333 332 330 327 326 325 323 321 319 315 312 309 306 303 300 297 296 295 294 293 290 287 285 282 278 274 267 261 257 255 253 251 250 250 250 251 255 255 245 242 228 196 182 184 179 176 177 178 176 172 169 168 167 163 160 158 159 161 159 155 154 154 154 158 165 169 163 153 154 164 179 186 197 208 218
351 350 334 325 339 344 333 331 334 333 332 332 329 326 326 324 321 320 318 314 311 308 304 301 298 295 293 291 291 291 290 287 286 283 280 275 269 265 264 264 261 255 252 253 251 251 265 275 237 225 222 205 198 199 191 184 181 178 175 171 166 163 163 164 168 169 164 159 155 152 154 160 163 167 173 177 173 167 169 173 178 209 220 211 216
343 333 323 325 336 335 330 331 334 334 333 332 329 326 325 323 321 320 317 313 310 307 303 301 299 295 293 292 290 289 288 288 287 286 284 281 274 268 266 269 272 270 263 259 250 228 220 199 114 127 177 198 208 207 196 188 185 178 173 171 167 162 163 169 174 172 164 156 153 156 164 170 172 176 182 182 174 172 181 181 178 198 212 193 188
333 322 322 334 331 327 330 332 333 333 331 328 327 325 324 323 321 318 314 311 309 305 301 299 296 294 293 292 289 287 286 286 285 284 286 287 283 275 267 264 265 267 265 264 262 252 231 208 199 163 118 167 194 194 186 183 182 175 169 168 167 165 169 176 176 168 158 153 157 165 172 175 177 179 183 180 174 180 190 186 180 184 188 178 182